This demonstration page uses our WeatherBlox Daily Observations layout. Learn more.

41.55636, -103.73856

Hourly Observations for April 28, 2019

Temp ( °F °C ) Dew Point ( °F °C ) Humidity (%) Winds ( mph kmh ) Pressure ( in mb ) Visibility ( mi km ) Precip ( " mm )
12:58 am 00:58 Mostly Cloudy 54 12.4 36 2.1 50 50 S 18 30 29.76 1008 10 16.0934 0 0
1:58 am 01:58 Mostly Cloudy 53 11.8 34 1.3 49 49 SSE 23 37 29.75 1008 10 16.0934 0 0
2:58 am 02:58 Mostly Cloudy 50 9.9 35 1.8 57 57 SSE 22 35 29.76 1008 10 16.0934 0 0
3:58 am 03:58 Partly Cloudy 47 8.1 34 1.2 62 62 S 20 31 29.76 1008 10 16.0934 0 0
4:58 am 04:58 Mostly Cloudy 47 8.5 33 0.6 58 58 S 24 39 29.74 1007 10 16.0934 0 0
5:58 am 05:58 Clear 44 6.9 33 0.3 63 63 S 16 26 29.72 1007 10 16.0934 0 0
6:58 am 06:58 Clear 43 6.3 33 0.4 66 66 SSW 16 26 29.75 1008 10 16.0934 0 0
7:58 am 07:58 Clear 42 5.8 33 0.7 70 70 SSW 16 26 29.72 1007 10 16.0934 0 0
8:58 am 08:58 Clear 41 5.1 33 0.8 74 74 SW 13 20 29.71 1006 10 16.0934 0 0
9:58 am 09:58 Clear 41 5.1 34 0.9 75 75 SW 17 28 29.67 1005 10 16.0934 0 0
10:58 am 10:58 Clear 39 4.1 33 0.6 78 78 SW 17 28 29.66 1005 10 16.0934 0 0
11:58 am 11:58 Sunny 40 4.6 33 0.7 76 76 SW 16 26 29.65 1004 10 16.0934 0 0
12:58 pm 12:58 Sunny 44 6.5 35 1.4 70 70 SW 17 28 29.65 1004 10 16.0934 0 0
1:58 pm 13:58 Sunny 51 10.3 36 2.1 57 57 SW 15 24 29.63 1003 10 16.0934 0 0
2:58 pm 14:58 Sunny 59 15.2 37 3 44 44 SW 16 26 29.6 1002 10 16.0934 0 0
3:58 pm 15:58 Mostly Sunny 62 16.9 35 1.5 36 36 SSW 20 31 29.59 1002 10 16.0934 0 0
4:58 pm 16:58 Mostly Sunny 68 19.8 35 1.9 31 31 SSW 17 28 29.55 1001 10 16.0934 0 0
5:58 pm 17:58 Mostly Cloudy with Light Showers 65 18.5 35 1.6 32 32 SW 15 24 29.54 1001 10 16.0934 0 0
6:58 pm 18:58 Partly Cloudy 64 17.8 40 4.7 42 42 WNW 16 26 29.54 1001 10 16.0934 0.04 1.016
7:58 pm 19:58 Mostly Sunny 64 17.6 42 5.3 45 45 NW 5 7 29.54 1000 10 16.0934 0 0
8:58 pm 20:58 Mostly Sunny 63 17.4 42 5.7 46 46 N 23 37 29.54 1001 10 16.0934 0 0
9:58 pm 21:58 Partly Cloudy 61 16 44 6.5 54 54 N 16 26 29.57 1001 10 16.0934 0 0
10:58 pm 22:58 Mostly Cloudy with Showers 53 11.5 41 4.8 64 64 N 32 52 29.69 1005 10 16.0934 0.02 0.508
11:58 pm 23:58 Mostly Sunny 47 8.2 37 2.6 68 68 N 25 41 29.77 1008 10 16.0934 0.01 0.254

Powered by AerisWeather